Tor Viking — SLJT — position and weather

sailwx.info

Track history (hours):
 
Tides and Currents Weather Stations Pressure Air Temp Water Temp Dewpoint Dewpoint Depression Visibility Wind Speed Wind Dir Waves Ship Positions

Tor Viking

Last reported at 2016-Aug-30 13:26 UTC. Time now 2016-Aug-31 21:51 UTC.
Position N 56°41' W 002°24'.

Length 84 m; draft 6.6 m.

Type: Towing. MMSI: 266004000.

Date/timePositionNaut miles runAvg speedWind from/ knotsBaromVisibWave heightAir tempDewpointWater temp
2016-Aug-30 13:26N 56°41' W 002°24'1 0.1
2016-Aug-30 00:31N 56°40' W 002°26'30 2.9
2016-Aug-29 14:08N 57°08' W 002°04'0 0.4
2016-Aug-29 13:29N 57°09' W 002°05'0 0.0
2016-Aug-29 12:32N 57°09' W 002°05'0 0.0
2016-Aug-29 11:29N 57°09' W 002°05'0 0.0
2016-Aug-29 10:29N 57°09' W 002°05'0 0.0
2016-Aug-29 09:32N 57°09' W 002°05'0 0.0
2016-Aug-29 08:32N 57°09' W 002°05'0 0.0
2016-Aug-29 07:26N 57°09' W 002°05'0 0.0
2016-Aug-29 06:26N 57°09' W 002°05'0 0.0
2016-Aug-29 05:29N 57°09' W 002°05'0 0.0
2016-Aug-29 04:32N 57°09' W 002°05'0 0.0
2016-Aug-29 03:29N 57°09' W 002°05'0 0.0
2016-Aug-29 02:32N 57°09' W 002°05'0 0.1
2016-Aug-29 01:34N 57°09' W 002°05'  
2016-Aug-24 21:14N 56°44' E 000°42'1 0.1
2016-Aug-24 01:34N 56°44' E 000°45'0 0.5
2016-Aug-24 00:32N 56°44' E 000°44'1 1.4
2016-Aug-23 23:26N 56°44' E 000°41'2 2.4
2016-Aug-23 22:33N 56°44' E 000°38'3 2.8
2016-Aug-23 21:34N 56°45' E 000°33'89 4.6
2016-Aug-23 02:29N 57°09' W 002°04'0 0.5
2016-Aug-23 01:32N 57°09' W 002°05'0 0.0
2016-Aug-23 00:32N 57°09' W 002°05'0 0.0
2016-Aug-22 23:32N 57°09' W 002°05'0 0.0
2016-Aug-22 22:32N 57°09' W 002°05'0 0.0
2016-Aug-22 21:32N 57°09' W 002°05'0 0.0
2016-Aug-22 20:29N 57°09' W 002°05'0 0.0
2016-Aug-22 19:32N 57°09' W 002°05'0 0.0
2016-Aug-22 18:32N 57°09' W 002°05'0 0.0
2016-Aug-22 17:32N 57°09' W 002°05'0 0.0
2016-Aug-22 16:32N 57°09' W 002°05'  
Track history (hours):
 
Tides and Currents Weather Stations Pressure Air Temp Water Temp Dewpoint Dewpoint Depression Visibility Wind Speed Wind Dir Waves Ship Positions

Tor Viking

Last reported at 2016-Aug-30 13:26 UTC. Time now 2016-Aug-31 21:51 UTC.
Position N 56°41' W 002°24'.

Length 84 m; draft 6.6 m.

Type: Towing. MMSI: 266004000.

Date/timePositionNaut miles runAvg speedWind from/ knotsBaromVisibWave heightAir tempDewpointWater temp
2016-Aug-30 13:26N 56°41' W 002°24'1 0.1
2016-Aug-30 00:31N 56°40' W 002°26'30 2.9
2016-Aug-29 14:08N 57°08' W 002°04'0 0.4
2016-Aug-29 13:29N 57°09' W 002°05'0 0.0
2016-Aug-29 12:32N 57°09' W 002°05'0 0.0
2016-Aug-29 11:29N 57°09' W 002°05'0 0.0
2016-Aug-29 10:29N 57°09' W 002°05'0 0.0
2016-Aug-29 09:32N 57°09' W 002°05'0 0.0
2016-Aug-29 08:32N 57°09' W 002°05'0 0.0
2016-Aug-29 07:26N 57°09' W 002°05'0 0.0
2016-Aug-29 06:26N 57°09' W 002°05'0 0.0
2016-Aug-29 05:29N 57°09' W 002°05'0 0.0
2016-Aug-29 04:32N 57°09' W 002°05'0 0.0
2016-Aug-29 03:29N 57°09' W 002°05'0 0.0
2016-Aug-29 02:32N 57°09' W 002°05'0 0.1
2016-Aug-29 01:34N 57°09' W 002°05'  
2016-Aug-24 21:14N 56°44' E 000°42'1 0.1
2016-Aug-24 01:34N 56°44' E 000°45'0 0.5
2016-Aug-24 00:32N 56°44' E 000°44'1 1.4
2016-Aug-23 23:26N 56°44' E 000°41'2 2.4
2016-Aug-23 22:33N 56°44' E 000°38'3 2.8
2016-Aug-23 21:34N 56°45' E 000°33'89 4.6
2016-Aug-23 02:29N 57°09' W 002°04'0 0.5
2016-Aug-23 01:32N 57°09' W 002°05'0 0.0
2016-Aug-23 00:32N 57°09' W 002°05'0 0.0
2016-Aug-22 23:32N 57°09' W 002°05'0 0.0
2016-Aug-22 22:32N 57°09' W 002°05'0 0.0
2016-Aug-22 21:32N 57°09' W 002°05'0 0.0
2016-Aug-22 20:29N 57°09' W 002°05'0 0.0
2016-Aug-22 19:32N 57°09' W 002°05'0 0.0
2016-Aug-22 18:32N 57°09' W 002°05'0 0.0
2016-Aug-22 17:32N 57°09' W 002°05'0 0.0
2016-Aug-22 16:32N 57°09' W 002°05'  

Dump ship's entire track history